Simultaneous Nadir Overpasses (SNOs) Predictions

Prediction of SNOs between GOES-16 and TERRA Satellite Orbit:

Table of predicted SNOs for the next 14.0 days since TLE Epoch: 12/28/2019
Index Date Time (GOES-16) GOES-16 Lat,Lon TERRA Lat,Lon Distance(km) Time Diff (sec)
1 12/28/2019 03:41:44 -0.01, -75.19 0.00, -77.60 267.81 80
2 12/30/2019 03:29:24 -0.02, -75.20 0.12, -74.53 76.02 80
3 01/01/2020 03:17:12 -0.03, -75.22 0.72, -71.57 414.44 80
4 01/01/2020 15:35:48 0.03, -75.23 0.35, -76.73 170.63 80
5 01/03/2020 15:26:17 0.03, -75.26 -0.31, -73.78 168.55 80
6 01/04/2020 03:45:01 -0.03, -75.26 -0.80, -78.97 421.80 80
7 01/06/2020 03:32:49 -0.03, -75.29 -0.19, -76.01 82.21 80
8 01/08/2020 03:23:17 -0.03, -75.32 0.42, -73.05 257.62 80
9 01/08/2020 15:41:53 0.02, -75.33 0.64, -78.21 327.22 80
10 01/10/2020 15:29:41 0.03, -75.37 0.03, -75.25 13.17 80




NCC Satellite Simultaneous Nadir Overpasses (SNOs) Prediction Service
